Wind_Speed
24 24 23 23 22 21 20 20 20 19 18 17 15 14 14 13 13 13 13 14 14 14 15 17 18 20 21 22 23 23 22 20 21 21 23 20 22 23 22 23 25 25 25 24 23
30 29 28 27 27 24 24 22 20 20 20 19 18 17 16 16 16 15 17 17 18 19 19 22 23 24 25 26 24 24 22 22 22 22 22 24 25 26 24 24 27 28 25 26 24
33 32 31 29 28 27 25 23 21 20 21 22 21 21 20 20 21 21 22 23 23 23 25 26 27 27 27 27 26 26 25 24 24 23 23 26 28 27 26 24 30 27 27 25 26
36 35 34 33 31 30 27 26 24 23 23 24 25 26 25 25 27 27 28 27 28 29 29 30 31 30 28 27 28 29 26 28 25 27 26 28 28 30 26 26 29 24 24 25 24
38 37 37 35 34 32 31 30 30 29 29 29 28 29 30 29 32 34 33 34 34 34 34 34 34 33 30 30 31 30 28 29 30 29 31 32 31 33 25 29 27 24 24 23 22
41 40 39 39 38 38 37 36 36 37 37 36 36 35 35 34 36 38 38 39 39 39 37 36 34 34 33 33 34 33 32 33 33 33 36 36 35 36 30 29 28 25 21 20 20
42 43 43 42 41 40 39 39 39 39 39 39 39 39 38 36 39 41 41 41 40 39 38 38 37 37 35 35 35 35 36 34 36 37 39 41 36 34 33 29 26 27 26 22 22
41 40 39 39 38 37 36 36 35 36 36 35 36 37 36 34 36 38 40 40 40 39 38 39 40 41 39 38 39 38 41 38 39 40 43 42 39 34 31 32 24 27 28 29 23
44 44 44 44 43 42 41 41 41 41 41 41 41 42 40 39 39 40 41 41 42 42 41 41 42 42 40 41 44 42 46 46 43 39 43 45 39 32 30 32 23 27 29 28 27
43 43 43 43 43 43 42 42 42 42 42 42 44 44 43 41 41 41 41 42 43 45 45 45 46 46 41 44 48 47 48 47 47 38 38 45 39 36 28 34 23 25 30 32 33
45 45 46 46 45 45 45 46 45 45 44 44 46 45 46 45 45 42 41 40 41 40 43 45 48 47 42 46 47 46 47 48 42 43 44 40 44 39 34 27 29 22 26 30 31
52 50 49 47 45 45 46 46 46 48 46 44 46 49 50 50 51 47 45 45 46 47 48 47 48 48 46 44 47 47 48 47 46 46 45 42 42 45 43 34 31 29 31 35 36
56 54 54 55 53 54 52 53 53 54 56 52 54 55 57 56 56 54 50 51 51 51 51 49 49 50 46 49 48 49 50 49 51 47 46 49 45 45 46 45 39 36 39 42 40
60 59 57 57 59 59 58 58 57 58 60 60 59 57 56 56 55 56 55 50 45 43 44 47 44 46 49 48 48 49 44 46 47 49 51 54 57 52 53 52 52 51 47 46 46
61 63 58 57 60 60 63 61 59 58 60 61 62 58 52 47 42 42 42 41 42 40 40 41 42 44 47 46 47 50 48 49 53 56 59 59 60 59 58 58 56 57 57 47 40
51 53 54 56 57 57 57 56 52 56 63 58 56 53 51 49 47 46 41 40 39 41 42 43 46 47 46 47 48 49 52 54 55 57 59 59 59 61 59 59 58 60 42 45 44
53 50 55 52 54 56 56 55 53 58 57 56 53 49 47 49 51 48 48 47 45 45 46 48 45 46 46 47 45 48 52 55 57 58 57 55 59 59 61 58 62 60 57 48 48
49 50 55 54 50 51 55 55 58 59 53 51 48 47 48 48 49 50 51 52 51 51 52 53 52 51 49 47 49 50 50 54 56 59 61 58 65 61 60 64 66 67 67 67 67
40 45 50 48 51 54 55 58 59 56 53 44 45 47 49 49 50 49 49 50 52 53 52 54 55 57 57 54 51 53 57 52 58 61 65 68 67 63 64 70 75 77 77 76 77
53 50 50 51 53 56 57 60 61 55 51 50 52 54 56 56 56 55 55 57 55 54 55 55 60 59 57 59 57 54 56 60 63 66 71 73 72 71 68 74 78 80 80 81 83
59 58 57 59 55 57 57 59 58 57 56 54 51 50 57 54 57 55 61 59 60 59 55 56 61 63 66 61 57 58 60 61 61 65 69 73 79 71 69 69 74 78 77 77 78
64 67 63 64 63 68 65 63 62 56 54 48 49 55 55 49 45 52 57 53 56 52 53 54 56 61 61 59 57 61 60 57 62 66 64 63 73 60 56 72 81 81 78 75 72
64 65 67 70 71 69 67 69 65 62 62 57 51 53 53 47 54 53 51 50 51 54 55 56 60 61 63 62 62 62 60 62 64 63 62 66 69 59 61 70 79 75 77 81 83
61 61 67 67 65 64 61 57 60 59 59 55 45 43 44 47 50 53 52 54 52 53 55 57 59 61 61 58 60 62 63 64 68 69 68 71 74 68 68 61 68 72 74 77 79
60 58 57 56 55 47 46 48 47 46 43 42 44 45 47 50 51 53 55 55 54 55 56 57 59 58 60 60 61 66 67 66 71 73 78 78 79 76 76 77 77 82 85 87 92
54 54 52 49 44 45 46 45 45 46 46 47 49 49 50 53 54 54 55 55 54 54 55 57 61 61 62 61 63 68 67 71 72 76 81 81 83 79 79 76 77 82 87 89 91
54 53 52 50 49 47 47 46 48 50 50 50 51 53 54 55 55 55 55 56 56 56 58 59 61 63 64 64 69 73 68 74 78 78 81 83 80 77 78 83 87 90 89 88 89
Wind_Direction
250 255 260 266 271 277 281 281 274 267 261 257 256 253 253 253 256 262 270 276 281 287 290 291 293 295 295 291 290 289 290 288 285 289 291 292 288 285 282 279 277 275 280 283 284
253 258 262 266 271 275 280 278 272 262 256 253 250 253 255 261 264 268 272 276 283 287 289 292 294 294 292 287 285 286 288 285 288 291 294 296 288 287 287 283 276 279 280 286 284
255 258 261 264 268 273 274 272 269 264 256 255 253 256 262 265 270 274 273 279 284 287 291 293 293 293 288 283 282 287 286 282 287 288 294 292 289 289 290 295 283 291 292 284 281
255 258 260 263 265 266 266 266 267 267 264 262 260 260 264 269 275 275 279 284 286 287 290 292 293 291 287 280 282 286 281 285 286 291 292 294 300 295 297 288 295 300 289 285 286
255 257 259 260 261 262 263 265 266 266 266 266 265 266 267 269 274 276 280 282 283 286 289 290 290 288 285 284 284 282 278 278 283 287 287 294 298 297 298 287 290 292 295 291 287
256 257 258 261 263 264 265 266 267 267 268 268 268 267 268 269 271 277 277 278 280 282 283 285 285 283 283 286 285 286 280 279 282 285 287 291 295 295 288 291 290 291 290 289 280
258 259 260 261 262 265 266 267 267 267 267 268 269 269 269 270 271 272 275 277 279 281 282 283 282 281 283 284 286 285 284 284 284 285 287 291 290 291 290 295 292 291 287 279 275
256 258 259 261 261 262 263 265 265 267 268 269 270 270 269 268 270 271 273 276 277 279 280 280 282 284 286 286 287 286 285 283 282 286 289 288 287 287 290 289 288 283 282 276 271
256 258 260 261 262 263 264 265 267 267 268 269 269 270 271 270 270 272 273 274 277 278 278 278 280 281 283 287 285 286 284 286 287 288 288 285 283 289 287 282 285 279 271 274 271
256 257 260 261 262 263 264 265 265 267 268 270 271 272 273 273 271 272 274 276 278 278 279 280 280 280 283 284 283 284 287 288 289 288 281 283 286 281 288 283 280 266 271 272 271
258 260 261 261 262 264 265 265 265 266 268 269 272 271 274 274 273 274 276 278 276 279 281 279 278 281 280 276 280 280 282 283 286 287 285 283 285 288 289 282 281 266 258 262 260
257 260 260 263 264 263 265 267 268 269 266 268 270 273 272 274 276 277 279 278 277 277 278 283 280 277 275 276 277 279 279 281 283 283 282 280 277 285 284 289 283 277 262 257 258
255 257 260 262 264 265 268 269 270 272 272 271 271 272 273 274 276 277 279 278 278 275 276 275 274 275 272 271 273 273 277 279 280 280 281 280 278 274 281 284 282 275 270 270 264
254 258 260 261 262 264 265 267 269 271 271 275 273 271 273 274 276 274 278 279 276 275 271 270 269 269 272 274 274 273 272 273 274 275 278 279 280 283 281 282 285 285 282 272 269
253 258 263 264 262 263 262 266 270 272 273 277 278 279 281 281 280 275 274 274 276 274 272 271 268 267 267 268 269 271 269 269 272 275 277 279 280 281 285 284 288 287 289 295 296
258 259 260 262 261 263 266 268 268 269 271 272 275 278 281 282 283 282 279 277 275 271 270 269 271 270 271 271 271 273 274 275 274 273 274 278 280 281 285 285 287 287 288 284 283
258 258 257 257 264 267 266 263 265 265 270 272 273 275 277 278 277 276 276 275 274 276 276 274 270 271 272 273 272 272 273 274 273 275 275 277 276 277 281 284 284 287 286 281 276
257 250 259 262 260 257 262 265 265 266 265 266 267 269 272 272 272 273 274 277 278 278 277 278 277 276 277 276 278 278 275 273 276 277 275 272 274 279 286 282 282 281 281 280 279
254 252 255 254 249 254 256 251 260 260 263 269 269 268 267 266 269 271 273 274 275 277 277 276 274 277 277 276 277 279 278 277 273 273 273 277 275 275 279 280 282 283 282 283 283
253 246 238 238 243 240 241 245 249 258 263 264 264 265 264 263 266 267 269 270 269 274 278 278 276 275 274 278 277 279 274 274 275 277 272 271 273 279 283 280 279 281 282 283 284
248 246 246 241 238 242 248 253 254 258 260 262 259 258 260 265 267 266 268 271 272 273 276 279 279 279 279 283 282 280 279 280 281 279 283 282 273 281 282 284 281 279 280 281 281
253 254 242 245 247 247 247 257 259 258 256 263 259 268 271 276 277 275 274 279 280 283 285 288 287 283 285 286 288 288 289 286 284 288 284 281 281 286 285 281 280 283 283 281 278
265 266 263 266 265 265 267 271 272 272 272 276 279 281 275 263 273 275 283 284 287 288 290 289 287 290 290 291 290 288 288 289 288 284 274 272 279 278 275 278 280 282 280 282 282
270 271 273 275 278 280 281 286 287 289 290 292 291 284 281 283 284 288 288 284 285 282 280 280 280 283 284 287 284 283 285 284 284 280 278 276 279 278 278 273 268 269 273 275 273
268 271 273 272 274 272 269 275 276 277 274 272 274 274 270 271 272 273 273 276 278 279 279 279 280 281 281 283 281 280 280 280 276 277 276 281 276 278 274 270 263 264 266 268 269
264 267 265 265 262 264 265 271 269 267 267 267 269 270 269 270 272 272 273 275 276 276 279 280 282 282 281 284 283 280 284 285 284 282 281 282 280 279 277 272 269 269 270 271 272
263 262 262 265 266 265 266 265 266 264 267 267 267 267 268 269 269 270 271 273 276 277 277 279 282 282 283 284 283 282 289 285 285 285 283 281 281 277 273 271 274 276 276 278 277
Height
5864 5865 5865 5866 5866 5866 5866 5866 5866 5866 5866 5866 5867 5867 5867 5867 5867 5867 5867 5867 5866 5866 5865 5865 5864 5863 5862 5861 5860 5858 5857 5856 5854 5853 5850 5850 5847 5846 5845 5843 5842 5841 5840 5839 5839
5860 5861 5861 5861 5862 5862 5862 5862 5862 5862 5863 5863 5863 5863 5863 5864 5863 5864 5863 5863 5862 5862 5862 5861 5860 5859 5858 5856 5855 5853 5853 5851 5850 5848 5847 5845 5843 5841 5841 5840 5836 5836 5837 5835 5835
5854 5855 5856 5857 5857 5858 5858 5858 5858 5858 5858 5859 5860 5859 5859 5859 5859 5859 5858 5858 5858 5857 5856 5855 5854 5854 5853 5851 5850 5850 5849 5846 5845 5843 5843 5841 5838 5838 5837 5837 5830 5833 5832 5831 5830
5848 5850 5850 5851 5852 5852 5853 5854 5854 5854 5854 5854 5855 5855 5855 5855 5855 5854 5854 5853 5853 5852 5851 5850 5848 5847 5847 5846 5845 5844 5843 5841 5841 5838 5837 5836 5835 5833 5833 5830 5827 5828 5827 5827 5826
5841 5842 5843 5844 5845 5846 5847 5848 5848 5848 5848 5849 5849 5849 5849 5850 5848 5847 5848 5847 5846 5845 5844 5843 5842 5840 5840 5840 5839 5838 5838 5836 5834 5833 5830 5830 5829 5826 5828 5824 5824 5823 5821 5821 5821
5834 5835 5836 5837 5838 5839 5840 5841 5841 5841 5841 5841 5842 5842 5843 5844 5842 5839 5839 5839 5839 5838 5837 5836 5834 5833 5833 5833 5832 5832 5831 5830 5829 5826 5824 5823 5823 5821 5821 5820 5819 5817 5817 5815 5814
5826 5827 5828 5829 5829 5831 5832 5832 5832 5832 5832 5832 5832 5833 5834 5836 5834 5833 5831 5831 5830 5830 5829 5828 5827 5826 5826 5825 5825 5823 5823 5823 5821 5820 5817 5814 5817 5816 5814 5814 5814 5812 5811 5809 5807
5817 5819 5820 5821 5821 5822 5823 5823 5824 5824 5824 5824 5824 5823 5825 5826 5825 5825 5823 5822 5822 5822 5822 5821 5819 5818 5819 5818 5816 5816 5814 5815 5815 5812 5808 5807 5806 5808 5809 5806 5810 5807 5805 5801 5802
5808 5810 5811 5812 5813 5814 5815 5815 5815 5815 5815 5816 5816 5814 5817 5818 5818 5817 5816 5815 5814 5813 5813 5813 5812 5811 5812 5810 5807 5808 5804 5804 5805 5806 5799 5796 5797 5802 5800 5798 5803 5800 5796 5796 5795
5798 5800 5802 5803 5804 5804 5805 5806 5806 5806 5806 5807 5806 5808 5807 5809 5808 5809 5808 5808 5808 5806 5805 5804 5802 5801 5806 5802 5798 5797 5794 5794 5792 5798 5794 5784 5789 5790 5795 5789 5793 5792 5790 5789 5786
5789 5791 5792 5793 5794 5795 5796 5796 5798 5797 5798 5799 5797 5797 5796 5797 5797 5799 5800 5800 5799 5798 5796 5795 5793 5793 5794 5791 5789 5788 5786 5783 5786 5784 5782 5783 5776 5780 5784 5786 5783 5782 5781 5780 5780
5778 5780 5781 5783 5784 5785 5785 5785 5786 5786 5787 5788 5787 5786 5785 5785 5785 5789 5791 5790 5790 5788 5786 5786 5783 5783 5783 5783 5779 5779 5776 5775 5774 5773 5772 5773 5772 5768 5771 5774 5777 5776 5772 5770 5771
5767 5769 5770 5772 5773 5775 5775 5775 5774 5774 5773 5778 5776 5775 5774 5775 5775 5777 5779 5778 5777 5777 5775 5775 5774 5770 5773 5770 5771 5769 5767 5767 5764 5764 5763 5759 5764 5763 5762 5762 5764 5764 5763 5761 5762
5756 5757 5759 5761 5763 5763 5763 5763 5764 5764 5762 5760 5760 5763 5765 5765 5764 5764 5763 5765 5764 5764 5763 5762 5764 5762 5759 5760 5760 5759 5759 5757 5756 5754 5752 5751 5749 5753 5751 5751 5747 5745 5745 5747 5749
5743 5746 5748 5748 5749 5750 5750 5752 5754 5753 5750 5749 5746 5747 5749 5751 5753 5754 5754 5753 5753 5753 5754 5753 5752 5751 5750 5749 5748 5748 5747 5748 5746 5744 5742 5742 5739 5739 5737 5736 5735 5732 5731 5733 5732
5731 5734 5735 5735 5736 5737 5739 5741 5743 5741 5735 5738 5737 5737 5737 5738 5740 5740 5742 5743 5742 5742 5742 5741 5740 5740 5740 5739 5739 5739 5737 5735 5734 5733 5733 5731 5730 5730 5725 5723 5718 5718 5719 5720 5720
5719 5723 5722 5724 5724 5725 5726 5727 5729 5726 5727 5728 5728 5727 5727 5728 5729 5729 5730 5730 5730 5729 5729 5729 5731 5730 5730 5728 5729 5727 5724 5722 5721 5720 5724 5722 5719 5719 5714 5712 5707 5708 5707 5706 5707
5707 5710 5710 5713 5712 5712 5712 5713 5713 5713 5715 5717 5718 5717 5717 5717 5716 5717 5718 5719 5720 5718 5718 5717 5719 5716 5719 5718 5715 5714 5715 5710 5705 5707 5708 5713 5707 5708 5704 5699 5695 5695 5694 5693 5692
5695 5695 5698 5700 5701 5701 5700 5698 5701 5702 5702 5706 5706 5705 5704 5704 5704 5705 5706 5705 5704 5703 5705 5703 5707 5701 5704 5703 5703 5701 5698 5701 5691 5695 5688 5695 5692 5695 5692 5685 5678 5673 5673 5671 5670
5682 5686 5687 5688 5690 5687 5685 5685 5686 5690 5693 5692 5693 5693 5691 5689 5690 5691 5691 5692 5693 5694 5689 5690 5688 5688 5688 5688 5687 5687 5687 5683 5680 5673 5672 5678 5677 5678 5677 5671 5661 5661 5657 5653 5649
5667 5670 5677 5675 5674 5673 5674 5675 5677 5678 5678 5679 5680 5678 5677 5675 5676 5676 5678 5676 5674 5675 5676 5674 5671 5679 5671 5673 5672 5669 5667 5668 5664 5659 5654 5655 5662 5664 5660 5654 5643 5638 5635 5634 5631
5650 5652 5662 5658 5659 5660 5662 5660 5661 5663 5663 5665 5663 5666 5665 5663 5660 5660 5664 5661 5658 5661 5658 5654 5651 5656 5658 5658 5652 5647 5649 5648 5640 5640 5636 5631 5634 5654 5640 5625 5616 5619 5618 5613 5611
5634 5637 5640 5639 5640 5646 5644 5640 5643 5645 5645 5644 5648 5648 5649 5651 5646 5649 5648 5648 5646 5646 5644 5641 5635 5637 5642 5640 5632 5628 5633 5630 5624 5620 5618 5613 5611 5631 5625 5607 5591 5602 5596 5591 5585
5619 5620 5624 5625 5627 5627 5624 5624 5624 5625 5625 5625 5629 5629 5631 5632 5631 5631 5633 5629 5633 5632 5630 5625 5622 5622 5622 5626 5618 5615 5615 5616 5607 5598 5594 5592 5592 5600 5601 5596 5584 5578 5573 5570 5567
5605 5608 5610 5610 5616 5615 5613 5615 5615 5614 5615 5616 5617 5618 5617 5617 5618 5618 5617 5618 5618 5615 5614 5609 5605 5605 5602 5605 5604 5595 5599 5603 5590 5585 5574 5577 5572 5579 5573 5572 5570 5562 5557 5555 5547
5591 5595 5596 5599 5599 5600 5601 5606 5604 5603 5604 5605 5605 5606 5606 5605 5606 5604 5602 5603 5604 5602 5598 5596 5589 5586 5587 5588 5583 5577 5585 5577 5573 5565 5554 5552 5548 5550 5544 5542 5545 5541 5532 5530 5524
5578 5580 5581 5583 5585 5586 5590 5590 5592 5589 5590 5590 5591 5590 5590 5590 5590 5590 5589 5589 5588 5586 5584 5582 5575 5570 5568 5570 5560 5556 5572 5557 5550 5548 5535 5525 5526 5524 5520 5517 5516 5514 5507 5504 5501